Theta_e
306 308 309 308 307 308 309 311 308 312 313 320 323 322 329 337 338 337 337 337 338 340 345 347 348 352 353 354 354 357 358 359 358 360 362 362 363 364 367 367 366 365 361 357
303 307 308 307 308 308 309 310 312 313 317 323 325 327 330 335 335 335 336 335 340 342 346 347 348 351 352 354 354 357 357 357 360 362 362 362 364 363 367 366 363 363 359 356
299 306 306 303 308 308 309 312 312 310 319 322 321 322 326 333 335 336 336 336 341 342 346 347 348 352 351 354 355 357 357 358 360 363 361 363 363 365 363 364 364 363 358 353
300 304 296 307 313 313 311 312 314 316 321 322 322 324 331 335 335 338 337 338 342 343 347 350 350 352 355 354 357 354 357 358 361 362 362 364 363 364 364 365 362 360 355 351
299 299 304 307 311 311 310 311 316 317 320 323 326 328 325 332 337 341 340 342 344 345 349 353 352 355 355 355 354 355 354 358 360 362 363 363 362 362 365 365 361 357 352 348
301 298 296 309 313 317 315 306 319 318 320 319 326 318 323 331 339 339 342 344 346 346 348 354 355 358 356 356 356 354 356 357 362 363 364 362 364 364 366 366 359 352 348 345
299 299 305 313 316 317 305 311 328 326 329 322 319 325 331 330 339 341 342 345 348 348 347 351 356 357 357 355 355 358 359 361 363 365 364 364 366 367 367 358 352 347 342 341
299 299 298 322 321 314 324 329 328 329 331 332 333 329 331 333 329 343 341 342 349 348 346 354 359 357 356 356 357 360 363 362 364 365 365 366 367 368 360 353 348 344 340 336
302 303 323 323 322 325 327 327 327 328 329 330 330 332 335 337 335 338 346 354 348 346 360 367 361 360 359 359 363 362 364 364 365 366 367 367 368 365 354 353 343 339 335 332
309 310 313 321 322 321 324 326 328 330 332 331 329 331 334 340 341 342 343 347 348 355 357 362 370 369 363 366 370 369 365 366 365 367 366 366 368 361 354 347 340 336 332 331
309 314 317 319 319 319 321 327 329 331 334 334 337 337 337 337 344 344 346 346 346 355 360 365 367 366 368 374 373 368 368 366 365 366 363 364 365 358 353 349 340 337 335 334
303 313 314 316 319 321 324 327 329 333 336 340 343 340 338 342 343 343 344 346 348 351 364 369 369 367 368 368 372 368 366 364 363 364 363 362 355 333 309 325 315 314 315 330
306 315 317 320 322 326 326 328 331 332 335 337 343 346 350 344 347 341 350 349 347 353 354 366 371 369 371 372 371 369 365 364 363 356 361 354 350 346 341 318 303 307 307 308
314 315 314 318 319 325 325 328 329 330 330 335 337 342 345 349 354 353 349 349 348 360 362 366 369 367 371 370 368 368 367 337 362 359 360 352 351 347 343 331 329 324 305 308
312 313 315 318 321 322 326 327 326 327 325 328 332 335 342 343 348 353 357 350 356 360 361 364 365 365 369 364 366 368 366 362 360 359 358 350 353 346 339 337 336 328 308 302
313 313 316 316 315 317 323 322 323 326 325 327 325 328 338 342 347 351 360 360 359 359 363 365 368 370 369 363 367 364 363 343 348 357 352 350 350 345 339 337 336 324 317 311
310 309 312 313 312 315 321 321 322 328 326 328 329 328 335 338 343 343 345 347 353 356 364 368 367 368 371 367 365 361 360 357 345 354 350 348 346 343 341 336 333 326 322 314
313 315 314 315 313 314 320 321 323 326 327 329 331 328 328 329 331 339 341 343 346 348 350 353 357 362 365 362 360 359 358 356 352 351 347 346 344 344 340 337 337 329 327 312
313 313 315 315 316 316 317 320 322 327 329 330 329 327 328 327 327 327 342 340 337 339 345 352 338 346 355 355 350 358 355 352 351 350 347 338 342 344 342 340 339 332 328 312
313 314 315 315 317 316 317 322 322 324 327 327 328 328 325 325 325 324 323 325 324 325 332 343 346 349 350 352 340 353 348 348 347 347 345 345 343 343 341 328 335 332 322 315
314 315 315 317 317 318 319 320 322 322 324 327 326 326 327 326 325 324 319 318 321 322 326 330 338 340 343 337 343 342 341 345 344 343 342 343 341 340 339 336 332 328 318 315
311 313 314 316 317 318 319 321 323 322 321 322 325 326 328 325 325 324 324 318 320 317 325 325 325 322 329 329 339 339 335 339 341 341 340 344 345 340 340 334 331 326 320 314
308 309 311 311 311 312 314 316 316 317 319 317 319 321 324 324 323 321 317 322 320 318 324 321 307 315 315 334 336 337 335 334 338 340 341 341 340 338 337 336 333 328 321 314
306 306 308 309 310 311 309 311 311 312 315 317 316 316 316 317 320 323 324 319 313 317 320 312 309 313 315 332 332 331 332 333 333 334 333 317 335 338 336 334 330 327 322 313
309 309 307 306 306 307 309 311 310 311 311 310 312 314 314 314 313 316 319 320 312 316 321 313 311 312 319 321 325 325 333 333 333 331 331 330 331 329 329 330 328 324 321 317
309 306 309 311 311 311 310 309 307 308 310 308 307 308 308 311 311 312 313 311 315 313 313 312 311 312 313 314 316 321 320 325 326 330 330 331 328 328 328 327 323 318 318 318
309 304 307 307 308 308 309 309 309 307 306 306 305 306 306 307 307 306 305 307 307 310 311 312 311 309 312 314 315 316 314 314 310 319 324 324 332 331 331 329 328 326 322 320
Wind_Speed
23 26 26 24 24 29 27 23 22 19 17 14 17 20 18 17 17 18 17 18 19 17 16 17 16 15 15 16 17 17 17 17 17 15 14 13 12 10 10 10 10 10 11 9
24 24 28 24 29 29 27 27 25 23 8 9 12 18 11 11 17 18 17 18 19 18 18 18 18 16 16 16 16 16 17 18 15 15 13 13 11 12 11 13 16 12 12 11
20 20 24 26 22 27 24 26 24 23 15 16 13 15 26 15 17 19 18 19 19 20 19 18 19 17 18 16 16 15 16 16 15 14 15 14 13 12 14 13 9 10 11 11
16 17 23 14 21 18 26 25 23 21 13 20 14 29 16 16 17 18 18 19 18 16 17 17 17 17 15 16 14 16 15 16 15 16 16 15 14 14 14 13 12 11 10 10
13 15 18 24 22 17 16 22 23 17 18 28 31 11 16 15 18 17 18 16 15 16 16 15 16 16 15 15 16 16 17 17 17 17 16 16 16 16 14 13 12 12 11 11
13 17 23 16 21 13 10 11 14 16 14 17 10 10 6 39 18 18 17 15 15 17 18 17 16 15 16 15 16 19 19 20 18 17 17 18 17 17 14 12 12 11 11 10
14 11 12 13 19 16 13 4 17 12 12 16 7 5 14 17 9 17 16 15 15 18 17 20 18 17 18 18 20 21 17 16 17 18 18 18 16 14 13 13 12 12 11 10
15 12 15 19 9 3 11 15 17 17 18 16 12 19 3 16 11 6 13 12 10 15 16 14 19 19 19 20 23 16 16 16 16 16 14 13 16 14 14 15 14 12 11 8
14 14 12 17 14 13 14 13 15 14 14 14 13 12 10 6 14 10 6 3 8 10 8 8 17 19 18 22 18 17 15 16 15 16 15 14 16 15 13 14 12 11 10 9
13 18 21 16 16 14 13 14 13 16 16 12 10 11 10 8 11 10 11 8 4 4 8 8 8 14 19 14 12 14 15 15 15 16 16 14 13 13 13 12 12 12 12 12
16 14 9 15 14 11 11 12 15 16 15 13 15 13 10 9 8 9 9 8 8 6 6 9 11 11 10 9 12 14 14 14 15 14 16 14 13 12 13 13 13 13 12 13
5 12 11 11 12 12 11 13 14 15 16 16 15 11 11 11 10 9 11 9 9 9 7 8 10 12 11 12 13 14 14 14 14 13 14 11 13 7 10 11 16 15 14 13
6 16 13 8 11 11 13 13 15 16 17 17 18 17 20 11 9 10 10 11 10 13 12 8 8 9 10 11 13 15 16 15 13 14 14 12 12 13 12 5 9 9 9 8
15 18 11 17 17 21 24 13 16 17 18 16 18 19 17 16 15 11 9 11 13 7 6 7 6 8 9 11 12 15 16 15 14 14 12 13 12 12 10 10 12 7 7 8
10 17 14 12 17 20 20 17 15 16 17 18 18 18 17 17 16 17 18 12 8 6 8 7 8 8 9 11 13 13 13 12 14 12 11 13 12 12 11 11 10 8 6 9
11 14 16 14 16 19 18 14 13 13 14 13 15 17 16 16 15 18 12 14 11 7 8 7 7 6 8 11 11 11 13 14 13 11 11 13 12 13 13 13 13 12 7 8
12 11 18 12 11 16 17 11 12 12 13 13 12 17 14 14 13 12 13 13 14 15 11 7 4 3 6 8 9 9 10 10 14 10 11 12 10 13 12 12 16 16 14 15
10 11 10 11 10 15 15 17 9 12 13 12 12 14 15 14 13 12 9 9 9 10 11 12 9 7 4 7 10 9 9 10 12 11 10 11 10 10 8 9 11 12 12 15
8 10 11 10 11 14 14 13 12 10 12 10 10 13 12 15 14 15 8 10 11 9 10 8 3 5 7 8 9 9 10 9 11 10 12 12 11 11 11 12 10 10 10 13
11 10 9 9 8 9 11 12 14 10 7 11 6 7 10 12 14 15 15 12 12 9 14 11 11 8 9 8 5 4 10 7 10 9 9 10 10 9 9 10 10 11 10 12
7 9 10 11 10 11 10 10 10 12 12 12 11 7 6 9 10 12 15 11 15 18 12 14 10 6 6 10 8 6 11 4 5 5 6 6 8 8 9 11 10 10 12 12
15 15 14 15 13 13 15 14 14 14 15 15 13 13 8 8 9 9 8 10 9 19 9 9 10 15 10 10 6 8 10 9 6 3 6 5 6 3 5 7 8 10 11 12
16 14 15 15 13 11 13 15 15 13 13 13 14 17 15 7 6 7 9 10 9 13 11 11 16 17 17 6 6 5 7 6 8 6 3 3 6 6 5 5 6 8 8 12
12 13 13 13 13 11 12 12 13 13 13 13 15 13 13 13 11 9 6 7 15 11 9 13 18 24 11 7 6 5 3 1 2 3 4 3 4 2 5 6 4 3 2 11
7 8 8 6 8 6 9 10 10 11 12 13 14 13 15 11 10 12 11 10 13 12 10 12 18 21 13 11 10 11 7 3 2 1 1 2 2 3 5 2 6 6 7 9
9 6 4 4 4 3 3 5 6 7 8 9 10 11 11 11 11 12 12 16 15 11 9 10 10 10 8 9 9 10 11 8 6 4 3 2 2 3 3 3 4 5 5 5
9 12 10 10 13 11 5 7 9 8 10 9 10 8 9 9 10 12 14 13 12 12 12 11 8 9 8 8 8 9 7 7 9 10 6 8 6 6 7 7 6 6 8 8
Wind_Direction
265 266 256 206 208 230 229 233 241 242 231 174 143 229 274 140 148 153 167 164 162 168 167 169 177 179 182 182 185 181 183 190 197 198 195 200 197 201 180 193 198 181 173 169
267 271 265 263 204 215 233 230 241 250 114 91 42 351 310 164 158 160 174 169 163 168 167 173 178 183 183 183 186 183 186 195 194 195 195 196 199 191 183 190 210 169 177 168
262 260 267 262 239 203 221 237 230 237 160 119 91 310 278 188 170 168 176 169 168 175 172 179 182 184 185 189 182 187 190 193 194 192 195 196 196 187 193 193 190 183 176 167
271 267 254 263 254 232 208 226 238 233 188 148 136 230 240 165 174 173 179 176 172 178 176 182 184 187 187 188 187 193 194 194 193 194 194 192 193 197 195 194 184 177 173 169
249 245 255 253 248 253 228 209 233 238 235 167 178 87 328 280 168 177 180 177 176 177 177 180 187 184 189 192 195 196 202 198 196 195 192 190 194 197 196 190 183 177 169 175
273 242 236 242 248 252 273 259 218 242 254 259 139 121 284 265 183 177 176 178 173 176 180 177 187 181 186 197 198 205 203 204 195 194 192 193 192 195 195 184 179 169 167 174
238 259 252 243 281 252 243 341 6 7 347 251 131 167 254 275 218 173 179 184 181 178 182 189 182 183 189 194 206 211 207 200 199 195 194 193 191 191 185 169 168 168 166 172
231 228 242 9 32 325 13 18 12 7 11 12 0 158 244 302 318 206 170 170 178 183 193 183 180 182 192 198 212 201 199 204 199 196 194 190 188 186 167 170 172 168 163 170
211 225 83 77 59 37 12 12 7 2 4 4 357 358 24 347 257 302 325 14 193 181 173 154 177 187 193 212 198 198 197 199 196 192 192 189 184 174 170 174 162 161 174 176
215 237 260 65 51 16 4 358 356 2 354 356 352 345 339 340 331 334 344 337 274 231 169 179 175 188 207 203 193 192 202 195 189 189 188 187 183 172 173 174 165 170 181 194
232 26 0 41 22 357 354 339 17 358 342 339 338 333 326 314 317 315 315 315 312 265 210 191 183 196 204 190 187 199 199 194 192 189 185 184 180 180 182 182 173 176 186 187
348 346 341 355 331 354 351 9 9 353 355 345 339 309 295 302 298 299 299 301 295 282 233 199 186 195 196 195 191 195 198 195 192 186 183 176 169 149 47 180 174 184 178 184
307 324 306 334 341 354 340 19 17 14 5 351 342 340 337 296 275 286 282 284 278 280 250 214 191 195 195 194 192 196 200 195 191 193 184 171 174 175 177 34 61 128 173 173
330 324 343 349 0 357 355 10 18 18 12 1 353 338 329 329 331 303 262 272 262 240 264 262 218 214 188 193 202 206 202 196 196 195 179 169 177 181 178 172 173 158 70 149
347 328 327 357 358 357 355 19 22 14 8 5 0 343 332 324 318 313 302 281 242 268 263 235 227 217 186 197 210 205 200 200 197 189 165 174 172 170 167 177 172 152 124 84
319 330 315 18 0 340 0 12 15 24 10 4 357 344 333 318 305 309 349 360 356 312 276 262 235 209 180 201 190 204 212 217 189 186 162 178 176 170 169 177 174 149 167 146
311 337 338 341 339 328 353 357 11 42 20 10 4 353 340 332 324 350 350 348 342 332 327 309 275 257 198 186 196 209 217 206 185 189 170 181 172 176 182 185 180 159 169 161
291 297 304 312 322 326 334 339 3 32 32 7 4 4 357 352 345 329 327 327 330 331 334 330 321 310 234 207 228 218 214 210 184 198 153 181 177 182 168 172 198 160 173 149
255 285 297 319 321 324 319 340 338 17 43 31 15 14 1 2 1 355 344 26 16 360 348 336 339 323 300 277 255 225 221 197 175 205 162 171 173 184 171 181 180 165 169 148
264 269 301 303 304 312 321 330 344 357 12 35 18 21 11 9 12 14 11 19 5 352 329 3 3 6 347 335 290 264 312 171 178 205 159 173 170 178 158 168 164 175 142 153
332 313 298 317 312 310 325 346 7 355 343 20 11 11 31 13 18 20 18 9 348 350 347 353 4 357 18 3 359 22 334 146 165 170 157 166 157 164 164 162 166 169 145 160
37 32 29 31 18 19 10 356 358 357 14 1 5 360 14 29 21 21 42 17 345 347 351 8 2 357 354 9 14 32 20 19 37 64 138 122 115 147 136 172 171 173 155 161
39 28 37 36 30 32 24 17 17 7 13 15 7 360 346 19 43 38 11 6 3 7 9 8 354 357 0 1 27 46 40 5 34 26 112 81 137 145 147 172 185 187 160 157
62 45 31 29 27 23 28 18 14 12 10 25 19 14 9 360 359 17 45 16 2 347 30 13 10 6 2 6 12 0 26 26 61 55 52 63 28 169 134 137 143 171 160 162
81 84 86 58 50 34 31 25 24 19 30 29 13 23 17 12 11 344 1 7 23 9 10 28 23 16 11 10 6 7 326 326 280 219 166 129 93 52 352 211 164 175 169 167
24 52 114 150 151 121 97 78 57 25 31 34 33 23 17 13 15 12 4 2 7 23 24 14 13 13 17 12 8 15 358 24 11 305 249 237 246 232 169 229 187 149 155 142
19 29 34 25 20 5 51 51 68 45 40 46 42 27 24 21 22 21 12 10 5 10 14 5 13 7 4 6 10 10 21 351 2 351 11 338 210 211 210 216 208 194 191 177